"startDT [UTC]","vpos","CH4 [ppm]","stdev(CH4) [ppm]","CO2 [ppm]","stdev(CO2) [ppm]","H2O [ppm]","stdev(H2O)","p_LGR [torr]","T_LGR [C]","mt1_LGR [us]","mt2_LGR [us]","T_ECpre [C]","T_EC1 [C]","T_EC2 [C]","p_inlet [hPa]","p_in [hPa]","p_out [hPa]","T_inlet [C]","RH_inlet [%]","dwpt_inlet [C]","T_vent [C]","RH_vent [%]","dwpt_vent [C]","flow_vent [l min-1]","flow_inlet [l min-1]","dwpt_sample [C]","T_room [C]"
2012-09-18 00:03:00,0.0,1.9399,0.0010,392.30,0.27,247.6,30.0,138.05,31.42,24.65,36.51,0.89,-26.15,7.11,-47,42,-944,23.3,18.5,-2.0,23.5,2.0,-28.7,5.73,2.60,-27.1,28.8
2012-09-18 00:04:00,0.0,1.9391,0.0010,392.33,0.31,247.4,31.1,138.05,31.41,24.66,36.51,0.91,-26.14,7.58,-47,42,-944,23.3,18.8,-1.8,23.5,2.0,-28.7,5.73,2.61,-27.1,28.9
2012-09-18 00:05:00,0.0,1.9390,0.0008,392.34,0.27,242.7,33.2,138.05,31.41,24.66,36.51,0.92,-26.13,8.03,-47,42,-944,23.3,18.8,-1.8,23.5,2.0,-28.6,5.73,2.64,-27.1,28.9
2012-09-18 00:06:00,0.0,1.9392,0.0010,392.37,0.31,247.5,30.1,138.05,31.41,24.65,36.51,0.94,-26.12,8.46,-47,42,-944,23.3,18.8,-1.8,23.5,2.0,-28.6,5.73,2.60,-27.1,28.9
2012-09-18 00:07:00,0.0,1.9399,0.0009,392.29,0.24,249.7,29.3,138.05,31.41,24.65,36.52,0.94,-26.10,8.87,-47,42,-944,23.3,18.7,-1.9,23.5,2.0,-28.6,5.73,2.60,-27.1,28.9
2012-09-18 00:08:00,0.0,1.9391,0.0010,392.33,0.30,250.3,28.8,138.05,31.41,24.66,36.51,0.94,-26.09,9.27,-47,42,-944,23.3,18.6,-1.9,23.5,2.0,-28.7,5.73,2.64,-27.1,28.9
2012-09-18 00:09:00,0.0,1.9393,0.0009,392.34,0.31,247.9,33.2,138.05,31.41,24.65,36.51,0.93,-26.07,9.66,-46,42,-944,23.3,18.6,-1.9,23.5,2.0,-28.7,5.73,2.60,-27.1,28.9
2012-09-18 00:10:00,0.0,1.9380,0.0011,392.46,0.29,250.8,30.8,138.05,31.41,24.65,36.51,0.94,-26.07,10.04,-47,42,-944,23.3,18.1,-2.3,23.5,2.0,-28.6,5.73,2.60,-27.1,28.9
2012-09-18 00:11:00,0.0,1.9362,0.0009,392.46,0.32,251.8,37.6,138.05,31.41,24.66,36.51,0.93,-26.05,10.40,-47,42,-944,23.3,16.9,-3.2,23.5,2.0,-28.7,5.73,2.63,-27.1,29.0
2012-09-18 00:12:00,0.0,1.9356,0.0009,392.48,0.25,248.8,27.8,138.05,31.41,24.65,36.51,0.91,-26.05,10.75,-47,42,-944,23.3,16.5,-3.5,23.5,2.0,-28.6,5.73,2.61,-27.1,28.9
2012-09-18 00:13:00,0.0,1.9360,0.0010,392.50,0.25,244.0,27.3,138.05,31.41,24.65,36.51,0.91,-26.04,11.09,-47,42,-944,23.3,16.7,-3.4,23.5,2.0,-28.6,5.73,2.59,-27.1,28.9
2012-09-18 00:14:00,0.0,1.9364,0.0009,392.49,0.26,249.4,29.5,138.05,31.41,24.65,36.51,0.90,-26.03,11.42,-47,42,-944,23.3,16.6,-3.4,23.5,2.0,-28.7,5.73,2.63,-27.1,28.9
2012-09-18 00:15:00,0.0,1.9364,0.0008,392.59,0.27,249.7,25.1,138.05,31.41,24.66,36.51,0.89,-26.03,11.73,-47,42,-945,23.3,16.5,-3.5,23.5,2.0,-28.7,5.73,2.62,-27.1,28.9
2012-09-18 00:16:00,0.0,1.9368,0.0012,392.47,0.25,245.5,27.2,138.05,31.41,24.65,36.51,0.90,-26.02,12.03,-47,42,-944,23.3,16.8,-3.3,23.5,2.0,-28.7,5.73,2.59,-27.1,28.9
2012-09-18 00:17:00,0.0,1.9339,0.0011,392.54,0.29,249.7,32.0,138.05,31.41,24.66,36.51,0.90,-26.01,12.33,-47,42,-944,23.3,16.3,-3.7,23.5,2.0,-28.7,5.73,2.62,-27.1,28.9
2012-09-18 00:18:00,0.0,1.9340,0.0010,392.50,0.33,250.1,29.6,138.05,31.41,24.66,36.51,0.91,-26.01,12.61,-47,42,-944,23.3,16.1,-3.8,23.5,2.0,-28.8,5.73,2.63,-27.1,28.9
2012-09-18 00:19:00,0.0,1.9345,0.0008,392.44,0.29,248.9,24.0,138.05,31.41,24.65,36.51,0.93,-26.01,12.88,-47,42,-944,23.3,16.1,-3.9,23.5,2.0,-28.8,5.73,2.58,-27.1,28.9
2012-09-18 00:20:00,0.0,1.9348,0.0009,392.45,0.31,256.3,37.0,138.05,31.40,24.66,36.51,0.94,-26.00,13.13,-47,42,-944,23.3,16.3,-3.7,23.5,2.0,-28.8,5.73,2.61,-27.1,28.9
2012-09-18 00:21:00,0.0,1.9352,0.0007,392.60,0.28,246.1,29.7,138.05,31.40,24.65,36.50,0.92,-26.00,13.38,-47,42,-944,23.3,16.5,-3.5,23.5,2.0,-28.8,5.73,2.63,-27.1,29.0
2012-09-18 00:22:00,0.0,1.9345,0.0012,392.58,0.31,255.0,33.4,138.05,31.40,24.66,36.50,0.93,-26.00,13.62,-47,42,-944,23.3,16.5,-3.5,23.5,2.0,-28.8,5.73,2.59,-27.1,28.9
2012-09-18 00:23:00,0.0,1.9338,0.0010,392.43,0.34,248.1,27.2,138.05,31.40,24.66,36.52,0.94,-25.99,13.85,-47,42,-944,23.4,16.3,-3.6,23.5,2.0,-28.8,5.73,2.61,-27.1,28.9
2012-09-18 00:24:00,0.0,1.9346,0.0009,392.45,0.27,240.6,30.5,138.05,31.40,24.65,36.51,0.94,-25.98,14.07,-47,42,-944,23.3,16.3,-3.7,23.5,2.0,-28.8,5.73,2.64,-27.1,28.9
2012-09-18 00:25:00,0.0,1.9347,0.0008,392.35,0.28,249.1,29.5,138.05,31.40,24.66,36.51,0.94,-25.98,14.28,-47,42,-944,23.4,16.2,-3.7,23.5,2.0,-28.7,5.73,2.59,-27.1,28.9
2012-09-18 00:26:00,0.0,1.9349,0.0008,392.35,0.28,248.1,30.8,138.05,31.40,24.65,36.52,0.94,-25.98,14.48,-47,42,-944,23.3,16.9,-3.2,23.6,2.0,-28.7,5.73,2.60,-27.1,28.9
2012-09-18 00:27:00,0.0,1.9342,0.0010,392.44,0.23,251.5,30.8,138.05,31.40,24.66,36.51,0.94,-25.97,14.67,-47,42,-944,23.4,17.0,-3.1,23.5,2.0,-28.8,5.73,2.64,-27.1,29.0
2012-09-18 00:28:00,0.0,1.9341,0.0008,392.48,0.26,251.6,28.2,138.05,31.40,24.65,36.51,0.93,-25.97,14.85,-47,42,-944,23.4,16.5,-3.5,23.6,1.9,-28.8,5.73,2.60,-27.1,28.9
2012-09-18 00:29:00,0.0,1.9339,0.0009,392.47,0.28,251.8,26.4,138.05,31.40,24.66,36.51,0.91,-25.97,15.03,-47,42,-944,23.4,16.2,-3.7,23.6,2.0,-28.7,5.73,2.60,-27.1,28.9
2012-09-18 00:30:00,0.0,1.9345,0.0008,392.49,0.28,246.9,28.7,138.05,31.40,24.66,36.51,0.92,-25.97,15.20,-47,42,-944,23.4,16.3,-3.6,23.5,2.0,-28.8,5.73,2.64,-27.1,28.9
2012-09-18 00:31:00,0.0,1.9338,0.0009,392.39,0.28,250.1,29.3,138.05,31.39,24.66,36.51,0.92,-25.97,15.36,-47,42,-944,23.4,16.4,-3.6,23.5,1.9,-28.8,5.73,2.61,-27.1,29.0
2012-09-18 00:32:00,0.0,1.9332,0.0007,392.46,0.28,246.1,31.9,138.05,31.39,24.66,36.52,0.90,-25.96,15.51,-47,42,-944,23.4,16.2,-3.7,23.6,2.0,-28.8,5.73,2.60,-27.1,28.9
2012-09-18 00:33:00,0.0,1.9325,0.0009,392.44,0.29,246.7,28.6,138.05,31.39,24.66,36.51,0.92,-25.96,15.66,-47,42,-944,23.4,16.3,-3.6,23.6,2.0,-28.8,5.73,2.63,-27.1,28.9
2012-09-18 00:34:00,0.0,1.9327,0.0008,392.53,0.32,250.2,32.5,138.05,31.39,24.65,36.51,0.91,-25.96,15.80,-47,42,-944,23.4,16.0,-3.8,23.6,2.0,-28.8,5.73,2.61,-27.1,28.9
2012-09-18 00:35:00,0.0,1.9326,0.0008,392.55,0.33,253.3,33.1,138.05,31.39,24.65,36.51,0.91,-25.95,15.94,-47,42,-944,23.4,15.9,-4.0,23.6,2.0,-28.8,5.73,2.59,-27.1,28.9
2012-09-18 00:36:00,0.0,1.9323,0.0008,392.48,0.30,243.3,34.8,138.05,31.39,24.66,36.51,0.92,-25.95,16.07,-47,42,-944,23.4,15.6,-4.2,23.6,2.0,-28.8,5.73,2.62,-27.1,29.0
2012-09-18 00:37:00,0.0,1.9325,0.0009,392.53,0.28,244.3,23.6,138.05,31.39,24.65,36.51,0.92,-25.95,16.19,-47,42,-944,23.4,15.7,-4.2,23.5,2.0,-28.8,5.73,2.63,-27.2,29.0
2012-09-18 00:38:00,0.0,1.9326,0.0009,392.46,0.31,243.0,29.5,138.05,31.39,24.65,36.52,0.93,-25.95,16.31,-47,42,-944,23.3,15.6,-4.3,23.5,1.9,-28.8,5.73,2.59,-27.2,28.9
2012-09-18 00:39:00,0.0,1.9321,0.0009,392.55,0.27,247.6,27.5,138.05,31.39,24.66,36.51,0.93,-25.95,16.42,-47,42,-944,23.3,15.8,-4.1,23.6,2.0,-28.7,5.73,2.61,-27.2,29.0
2012-09-18 00:40:00,0.0,1.9327,0.0007,392.51,0.31,249.0,26.9,138.05,31.39,24.65,36.51,0.92,-25.94,16.53,-47,42,-944,23.3,15.9,-4.0,23.6,2.0,-28.8,5.73,2.64,-27.2,29.0
2012-09-18 00:41:00,0.0,1.9328,0.0010,392.49,0.29,241.2,34.4,138.05,31.39,24.65,36.51,0.93,-25.94,16.63,-47,42,-944,23.3,16.2,-3.7,23.5,2.0,-28.8,5.73,2.59,-27.2,29.0
2012-09-18 00:42:00,0.0,1.9319,0.0010,392.44,0.32,243.7,31.9,138.05,31.39,24.66,36.52,0.94,-25.95,16.73,-47,42,-944,23.4,15.9,-4.0,23.6,1.9,-28.8,5.73,2.61,-27.2,29.0
2012-09-18 00:43:00,0.0,1.9316,0.0010,392.54,0.29,244.8,26.5,138.05,31.39,24.66,36.51,0.94,-25.95,16.82,-47,42,-944,23.4,15.4,-4.4,23.5,2.0,-28.8,5.73,2.64,-27.2,29.0
2012-09-18 00:44:00,0.0,1.9322,0.0009,392.51,0.29,246.5,31.2,138.05,31.39,24.65,36.50,0.94,-25.94,16.91,-47,42,-944,23.4,15.4,-4.3,23.5,2.0,-28.8,5.73,2.59,-27.2,29.0
2012-09-18 00:45:00,0.0,1.9318,0.0008,392.46,0.26,243.0,31.8,138.05,31.39,24.65,36.51,0.93,-25.94,17.00,-47,42,-944,23.4,15.5,-4.3,23.6,2.0,-28.8,5.73,2.60,-27.2,29.0
2012-09-18 00:46:00,0.0,1.9318,0.0008,392.51,0.29,244.3,27.7,138.05,31.39,24.66,36.51,0.93,-25.95,17.08,-47,42,-944,23.4,15.7,-4.1,23.5,1.9,-28.8,5.73,2.64,-27.2,29.0
2012-09-18 00:47:00,0.0,1.9318,0.0010,392.50,0.29,236.4,35.4,138.05,31.39,24.66,36.50,0.94,-25.94,17.17,-47,42,-944,23.4,15.8,-4.1,23.6,1.9,-28.8,5.73,2.60,-27.2,29.0
2012-09-18 00:48:00,0.0,1.9320,0.0008,392.46,0.30,244.7,31.8,138.05,31.39,24.65,36.51,0.94,-25.94,17.25,-47,42,-944,23.4,15.8,-4.0,23.6,1.9,-28.9,5.73,2.59,-27.2,29.0
2012-09-18 00:49:00,0.0,1.9317,0.0010,392.41,0.30,240.7,30.1,138.05,31.39,24.66,36.51,0.94,-25.94,17.32,-47,42,-944,23.4,15.3,-4.4,23.6,1.9,-28.9,5.73,2.64,-27.2,29.0
2012-09-18 00:50:00,0.0,1.9318,0.0008,392.58,0.24,241.4,31.7,138.05,31.39,24.66,36.51,0.92,-25.94,17.39,-47,42,-944,23.4,15.5,-4.2,23.5,1.9,-28.9,5.73,2.61,-27.2,29.0
2012-09-18 00:51:00,0.0,1.9312,0.0008,392.49,0.32,236.8,31.6,138.05,31.39,24.66,36.50,0.92,-25.94,17.46,-47,42,-944,23.4,15.5,-4.3,23.6,1.9,-28.9,5.73,2.59,-27.2,29.0
2012-09-18 00:52:00,0.0,1.9319,0.0008,392.44,0.30,244.0,26.6,138.05,31.39,24.66,36.51,0.93,-25.94,17.52,-47,42,-944,23.4,15.4,-4.4,23.6,1.9,-28.9,5.73,2.63,-27.2,29.0
2012-09-18 00:53:00,0.0,1.9327,0.0008,392.45,0.30,242.3,29.5,138.05,31.39,24.65,36.51,0.90,-25.94,17.58,-47,42,-944,23.4,15.4,-4.3,23.6,1.9,-28.9,5.73,2.62,-27.2,29.0
2012-09-18 00:54:00,0.0,1.9325,0.0009,392.44,0.31,241.5,30.7,138.05,31.39,24.65,36.51,0.92,-25.94,17.64,-47,42,-944,23.4,15.7,-4.1,23.6,1.9,-28.9,5.73,2.59,-27.2,29.0
2012-09-18 00:55:00,0.0,1.9317,0.0009,392.52,0.28,233.3,34.0,138.05,31.39,24.66,36.51,0.92,-25.94,17.70,-47,42,-944,23.4,15.2,-4.6,23.6,1.9,-28.9,5.73,2.62,-27.2,29.0
2012-09-18 00:56:00,0.0,1.9324,0.0010,392.48,0.29,242.7,35.1,138.05,31.39,24.66,36.51,0.91,-25.94,17.75,-47,42,-945,23.4,15.7,-4.1,23.6,1.9,-28.9,5.73,2.63,-27.2,29.0
2012-09-18 00:57:00,0.0,1.9327,0.0007,392.48,0.29,248.2,27.6,138.05,31.39,24.66,36.51,0.92,-25.94,17.80,-47,42,-944,23.4,15.6,-4.2,23.6,1.9,-28.9,5.73,2.59,-27.2,29.0
2012-09-18 00:58:00,0.0,1.9324,0.0009,392.51,0.29,240.0,31.3,138.05,31.39,24.66,36.51,0.91,-25.94,17.85,-47,42,-944,23.4,15.6,-4.1,23.5,1.9,-28.9,5.73,2.61,-27.2,29.0
2012-09-18 00:59:00,0.0,1.9321,0.0008,392.58,0.25,244.0,31.4,138.05,31.38,24.66,36.51,0.90,-25.94,17.89,-47,42,-944,23.5,15.8,-4.0,23.6,1.9,-29.0,5.73,2.63,-27.2,29.0
2012-09-18 01:00:00,0.0,1.9324,0.0009,392.45,0.26,240.5,31.8,138.05,31.38,24.65,36.51,0.91,-25.94,17.94,-47,42,-944,23.5,15.3,-4.4,23.6,1.9,-28.8,5.73,2.58,-27.2,29.0
2012-09-18 01:01:00,0.0,1.9325,0.0009,392.50,0.26,240.5,27.5,138.05,31.38,24.66,36.51,0.93,-25.94,17.99,-47,42,-944,23.5,15.3,-4.4,23.6,1.9,-28.9,5.73,2.62,-27.2,29.0
2012-09-18 01:02:00,0.0,1.9337,0.0011,392.47,0.34,249.5,30.0,138.05,31.38,24.65,36.52,0.93,-25.94,18.03,-47,42,-944,23.5,15.2,-4.4,23.6,1.9,-29.0,5.73,2.64,-27.3,29.0
2012-09-18 01:03:00,0.0,1.9334,0.0010,392.66,0.30,242.6,33.1,138.05,31.38,24.66,36.51,0.93,-25.94,18.07,-47,42,-944,23.5,15.5,-4.2,23.6,1.9,-28.9,5.73,2.59,-27.2,29.0
2012-09-18 01:04:00,0.0,1.9334,0.0008,392.51,0.28,244.0,28.3,138.05,31.37,24.66,36.51,0.93,-25.94,18.11,-47,42,-944,23.5,15.6,-4.1,23.6,1.9,-28.9,5.73,2.61,-27.2,29.0
2012-09-18 01:05:00,0.0,1.9334,0.0011,392.60,0.32,240.1,28.5,138.05,31.37,24.66,36.51,0.95,-25.93,18.15,-47,42,-944,23.5,15.6,-4.1,23.6,1.9,-28.9,5.73,2.63,-27.3,28.9
2012-09-18 01:06:00,0.0,1.9336,0.0007,392.60,0.31,239.8,25.4,138.05,31.37,24.66,36.51,0.94,-25.93,18.18,-47,42,-944,23.5,15.8,-4.0,23.6,1.9,-28.9,5.73,2.59,-27.3,29.0
2012-09-18 01:07:00,0.0,1.9344,0.0009,392.70,0.30,241.6,28.4,138.05,31.37,24.66,36.51,0.94,-25.94,18.22,-47,42,-945,23.5,15.7,-4.0,23.6,1.9,-28.9,5.73,2.61,-27.2,29.0
2012-09-18 01:08:00,0.0,1.9349,0.0009,392.60,0.26,241.1,29.1,138.05,31.37,24.66,36.51,0.94,-25.94,18.24,-47,42,-944,23.5,15.7,-4.0,23.6,1.9,-28.9,5.73,2.63,-27.3,29.0
2012-09-18 01:09:00,0.0,1.9346,0.0010,392.50,0.30,241.5,25.2,138.05,31.37,24.65,36.51,0.94,-25.94,18.27,-47,42,-945,23.5,15.5,-4.2,23.6,1.9,-28.9,5.73,2.60,-27.3,29.0
2012-09-18 01:10:00,0.0,1.9341,0.0008,392.60,0.28,242.8,30.8,138.05,31.37,24.66,36.51,0.94,-25.94,18.31,-47,42,-944,23.5,15.2,-4.4,23.6,1.9,-28.9,5.73,2.61,-27.3,29.0
2012-09-18 01:11:00,0.0,1.9348,0.0011,392.53,0.26,249.4,30.9,138.05,31.37,24.65,36.52,0.94,-25.94,18.33,-47,42,-944,23.5,15.6,-4.1,23.6,1.9,-29.0,5.73,2.64,-27.3,29.0
2012-09-18 01:12:00,0.0,1.9347,0.0007,392.50,0.27,233.0,30.5,138.05,31.37,24.66,36.51,0.93,-25.94,18.36,-47,42,-944,23.5,15.5,-4.2,23.7,1.9,-29.0,5.73,2.59,-27.3,29.0
2012-09-18 01:13:00,0.0,1.9354,0.0009,392.62,0.25,236.3,31.4,138.05,31.37,24.66,36.51,0.93,-25.95,18.38,-47,42,-945,23.5,15.7,-4.0,23.7,1.9,-29.1,5.73,2.61,-27.3,28.9
2012-09-18 01:14:00,0.0,1.9357,0.0009,392.72,0.25,242.1,32.7,138.05,31.37,24.65,36.51,0.92,-25.94,18.41,-47,42,-944,23.5,15.5,-4.2,23.7,1.9,-29.0,5.73,2.64,-27.3,29.0
2012-09-18 01:15:00,0.0,1.9368,0.0009,392.70,0.29,238.2,30.8,138.05,31.37,24.66,36.52,0.93,-25.94,18.43,-47,42,-944,23.6,15.9,-3.8,23.7,1.9,-29.1,5.73,2.60,-27.3,28.9
2012-09-18 01:16:00,0.0,1.9367,0.0010,392.65,0.23,237.1,29.4,138.05,31.37,24.66,36.52,0.91,-25.94,18.46,-47,42,-945,23.5,15.6,-4.1,23.7,1.9,-29.1,5.73,2.61,-27.3,29.0
2012-09-18 01:17:00,0.0,1.9369,0.0008,392.71,0.26,234.7,29.2,138.05,31.37,24.65,36.51,0.91,-25.94,18.48,-47,42,-944,23.5,15.7,-4.0,23.7,1.9,-29.0,5.73,2.64,-27.3,29.0
2012-09-18 01:18:00,0.0,1.9370,0.0009,392.70,0.27,235.6,27.6,138.05,31.36,24.65,36.51,0.90,-25.94,18.50,-47,42,-945,23.6,15.8,-3.9,23.7,1.9,-29.0,5.73,2.59,-27.3,29.0
2012-09-18 01:19:00,0.0,1.9362,0.0012,392.68,0.25,241.3,28.0,138.06,31.36,24.66,36.51,0.92,-25.94,18.52,-47,42,-945,23.6,15.5,-4.1,23.7,1.9,-29.0,5.73,2.61,-27.3,29.0
2012-09-18 01:20:00,0.0,1.9369,0.0012,392.74,0.34,240.3,32.8,138.05,31.36,24.65,36.50,0.92,-25.94,18.54,-47,42,-944,23.6,15.5,-4.1,23.7,1.9,-29.0,5.73,2.64,-27.3,29.0
2012-09-18 01:21:00,0.0,1.9369,0.0007,392.70,0.28,232.0,30.3,138.05,31.36,24.66,36.51,0.92,-25.94,18.56,-47,42,-944,23.6,15.6,-4.0,23.7,1.9,-29.0,5.73,2.59,-27.3,29.0
2012-09-18 01:22:00,1.0,1.9011,0.0200,381.30,6.32,274.9,32.8,138.05,31.36,24.65,36.52,0.89,-25.94,18.58,-43,-2,-945,23.6,15.5,-4.1,23.7,1.9,-29.2,5.73,2.45,-26.9,29.1
2012-09-18 01:23:00,1.0,1.8829,0.0009,375.35,0.31,298.7,30.8,138.05,31.36,24.66,36.52,0.93,-25.94,18.59,-43,-2,-945,23.6,15.8,-3.8,23.7,1.8,-29.5,5.73,2.47,-26.9,29.1
2012-09-18 01:24:00,1.0,1.8824,0.0009,375.48,0.30,280.1,32.2,138.05,31.36,24.66,36.52,0.91,-25.95,18.61,-43,-2,-944,23.6,16.4,-3.4,23.7,1.8,-29.5,5.73,2.47,-27.1,29.1
2012-09-18 01:25:00,1.0,1.8830,0.0009,375.46,0.27,258.9,34.1,138.05,31.36,24.65,36.52,0.93,-25.95,18.62,-43,-2,-945,23.6,15.9,-3.8,23.7,1.8,-29.4,5.73,2.47,-27.5,29.0
2012-09-18 01:26:00,1.0,1.8829,0.0008,375.49,0.29,230.7,29.1,138.05,31.36,24.66,36.52,0.93,-25.95,18.64,-43,-2,-945,23.7,15.4,-4.2,23.8,1.8,-29.5,5.73,2.47,-27.7,29.0
2012-09-18 01:27:00,1.0,1.8827,0.0008,375.35,0.29,208.8,30.9,138.05,31.36,24.66,36.52,0.92,-25.96,18.66,-43,-2,-944,23.7,15.5,-4.0,23.8,1.8,-29.4,5.73,2.47,-28.1,29.1
2012-09-18 01:28:00,1.0,1.8828,0.0009,375.44,0.31,184.2,33.3,138.05,31.36,24.66,36.52,0.93,-25.97,18.67,-43,-2,-945,23.8,15.2,-4.3,23.8,1.8,-29.5,5.73,2.46,-28.6,29.1
2012-09-18 01:29:00,4.0,1.8486,0.0175,384.41,4.70,123.8,46.5,138.05,31.37,24.66,36.51,1.02,-25.98,18.54,-43,7,-945,23.8,15.1,-4.3,23.9,1.8,-29.6,5.73,2.47,-30.2,29.1
2012-09-18 01:30:00,4.0,1.8331,0.0008,388.77,0.23,30.7,24.8,138.05,31.36,24.65,36.51,1.14,-25.98,17.06,-43,7,-945,23.8,15.1,-4.3,23.9,1.8,-29.6,5.73,2.46,-31.8,29.1
2012-09-18 01:31:00,4.0,1.8330,0.0009,388.80,0.27,6.2,13.7,138.05,31.36,24.66,36.51,1.02,-25.98,14.79,-43,7,-944,23.9,15.2,-4.2,23.9,1.8,-29.5,5.73,2.45,-32.8,29.1
2012-09-18 01:32:00,4.0,1.8328,0.0009,388.70,0.29,-0.2,3.7,138.05,31.36,24.66,36.51,1.01,-26.00,12.41,-44,7,-945,23.9,15.2,-4.1,23.9,1.8,-29.7,5.73,2.45,-33.5,29.1
2012-09-18 01:33:00,4.0,1.8327,0.0008,388.80,0.24,-0.9,0.9,138.06,31.36,24.66,36.51,1.09,-26.02,10.06,-43,7,-945,23.9,15.0,-4.3,24.0,1.8,-29.6,5.73,2.46,-34.1,29.2
2012-09-18 01:34:00,4.0,1.8329,0.0010,388.77,0.29,-1.0,0.0,138.05,31.36,24.66,36.51,0.99,-26.04,7.79,-43,7,-945,23.9,14.8,-4.5,24.0,1.8,-29.6,5.73,2.46,-34.7,29.2
2012-09-18 01:35:00,4.0,1.8332,0.0007,388.75,0.27,-1.0,0.0,138.05,31.36,24.66,36.51,1.01,-26.04,5.63,-43,7,-945,24.0,14.5,-4.7,24.0,1.8,-29.6,5.73,2.46,-35.2,29.1
2012-09-18 01:36:00,5.0,1.7133,0.0584,361.53,13.27,-1.0,0.0,138.05,31.36,24.66,36.52,1.09,-26.06,3.49,-44,40,-945,24.0,14.6,-4.6,24.1,1.8,-29.6,5.73,2.46,-38.6,29.3
2012-09-18 01:37:00,5.0,1.6627,0.0008,349.84,0.25,-1.0,0.0,138.06,31.35,24.66,36.53,0.98,-26.07,1.62,-44,40,-945,24.0,14.7,-4.5,24.1,1.8,-29.5,5.73,2.46,-39.4,29.2
2012-09-18 01:38:00,5.0,1.6628,0.0010,349.78,0.27,-1.0,0.0,138.06,31.35,24.66,36.53,1.01,-26.08,-0.22,-44,40,-945,24.1,15.2,-4.0,24.1,1.7,-29.6,5.73,2.47,-41.4,29.3
2012-09-18 01:39:00,5.0,1.6625,0.0008,349.82,0.26,-1.0,0.0,138.06,31.35,24.66,36.53,1.08,-26.09,-1.93,-44,40,-945,24.1,15.1,-4.1,24.2,1.7,-29.7,5.73,2.46,-41.9,29.4
2012-09-18 01:40:00,5.0,1.6624,0.0008,349.72,0.26,-1.0,0.0,138.06,31.34,24.66,36.53,1.00,-26.10,-3.19,-44,40,-945,24.1,14.9,-4.2,24.2,1.7,-29.8,5.73,2.46,-42.3,29.4
2012-09-18 01:41:00,5.0,1.6624,0.0007,349.83,0.26,-1.0,0.0,138.06,31.34,24.66,36.53,0.97,-26.11,-4.72,-44,40,-945,24.2,14.7,-4.4,24.2,1.6,-30.2,5.73,2.46,-42.7,29.4
2012-09-18 01:42:00,5.0,1.6624,0.0009,349.78,0.23,-1.0,0.0,138.06,31.33,24.66,36.53,1.06,-26.12,-6.12,-44,39,-945,24.2,14.7,-4.4,24.3,1.6,-30.2,5.73,2.47,-43.0,29.4
2012-09-18 01:43:00,2.0,1.7976,0.0688,380.25,15.83,-1.0,0.0,138.06,31.33,24.66,36.52,1.03,-26.13,-7.53,-44,2,-945,24.3,14.2,-4.8,24.3,1.6,-30.1,5.73,2.45,-39.7,29.4
2012-09-18 01:44:00,2.0,1.8586,0.0009,394.33,0.28,-1.0,0.0,138.06,31.33,24.66,36.52,0.96,-26.14,-8.74,-44,2,-945,24.3,14.3,-4.7,24.3,1.6,-30.1,5.73,2.47,-37.9,29.4
2012-09-18 01:45:00,2.0,1.8590,0.0009,394.49,0.25,-1.0,0.0,138.06,31.32,24.66,36.51,1.01,-26.15,-9.88,-44,2,-945,24.3,14.2,-4.7,24.4,1.6,-30.1,5.73,2.47,-37.5,29.4
2012-09-18 01:46:00,2.0,1.8591,0.0009,394.42,0.26,-1.0,0.0,138.06,31.32,24.65,36.52,1.07,-26.16,-10.95,-44,2,-945,24.3,14.6,-4.4,24.4,1.6,-30.1,5.73,2.46,-37.4,29.5
2012-09-18 01:47:00,2.0,1.8587,0.0008,394.48,0.29,-1.0,0.0,138.06,31.31,24.66,36.51,1.02,-26.17,-12.06,-44,2,-945,24.4,14.8,-4.2,24.4,1.6,-30.0,5.73,2.46,-37.5,29.5
2012-09-18 01:48:00,2.0,1.8588,0.0008,394.53,0.30,-1.0,0.0,138.06,31.31,24.66,36.51,0.95,-26.18,-13.07,-44,2,-945,24.4,14.6,-4.3,24.4,1.6,-30.1,5.73,2.46,-37.6,29.4
2012-09-18 01:49:00,2.0,1.8591,0.0008,394.48,0.25,-1.0,0.0,138.06,31.31,24.66,36.51,1.00,-26.20,-14.05,-44,2,-945,24.4,14.4,-4.5,24.4,1.6,-30.2,5.73,2.47,-37.8,29.4
2012-09-18 01:50:00,0.0,1.9079,0.0238,393.11,0.82,-1.0,0.0,138.06,31.31,24.66,36.51,1.07,-26.21,-14.97,-48,41,-945,24.4,13.8,-5.1,24.5,1.6,-30.1,5.73,2.60,-34.9,29.4
2012-09-18 01:51:00,0.0,1.9291,0.0009,392.46,0.25,16.4,20.6,138.06,31.30,24.66,36.52,1.00,-26.23,-15.74,-48,41,-945,24.4,13.6,-5.2,24.5,1.7,-29.9,5.73,2.63,-31.6,29.4
2012-09-18 01:52:00,0.0,1.9294,0.0009,392.44,0.29,69.0,33.5,138.06,31.30,24.65,36.52,0.97,-26.24,-16.54,-48,41,-945,24.5,13.7,-5.1,24.5,1.7,-29.7,5.73,2.59,-30.4,29.4
2012-09-18 01:53:00,0.0,1.9287,0.0009,392.38,0.24,84.4,31.5,138.06,31.30,24.66,36.51,1.03,-26.25,-17.24,-48,41,-945,24.5,13.7,-5.0,24.5,1.7,-29.7,5.73,2.64,-29.8,29.5
2012-09-18 01:54:00,0.0,1.9268,0.0014,392.39,0.24,116.7,31.7,138.06,31.30,24.66,36.51,1.05,-26.26,-17.96,-48,41,-945,24.5,13.7,-5.1,24.5,1.7,-29.6,5.73,2.60,-29.4,29.5
2012-09-18 01:55:00,0.0,1.9274,0.0010,392.46,0.29,134.1,29.3,138.06,31.29,24.66,36.51,0.97,-26.27,-18.64,-48,41,-945,24.5,13.4,-5.4,24.5,1.7,-29.6,5.73,2.61,-29.1,29.5
2012-09-18 01:56:00,0.0,1.9269,0.0009,392.39,0.31,150.1,33.1,138.06,31.29,24.66,36.51,0.97,-26.28,-19.29,-48,41,-945,24.5,13.7,-5.0,24.5,1.7,-29.6,5.73,2.63,-28.9,29.5
2012-09-18 01:57:00,0.0,1.9271,0.0009,392.44,0.32,152.6,25.5,138.06,31.28,24.65,36.51,1.03,-26.29,-19.89,-48,41,-945,24.5,13.8,-4.9,24.6,1.7,-29.6,5.73,2.59,-28.7,29.5
2012-09-18 01:58:00,0.0,1.9264,0.0010,392.23,0.27,168.5,26.3,138.07,31.28,24.65,36.52,1.05,-26.30,-20.47,-48,41,-945,24.6,13.9,-4.8,24.6,1.7,-29.6,5.73,2.65,-28.6,29.6
2012-09-18 01:59:00,0.0,1.9253,0.0009,392.30,0.30,171.0,28.8,138.07,31.27,24.66,36.51,0.98,-26.30,-21.00,-48,41,-946,24.6,13.3,-5.4,24.6,1.7,-29.7,5.73,2.59,-28.5,29.5
2012-09-18 02:00:00,0.0,1.9256,0.0008,392.19,0.26,179.7,25.3,138.07,31.27,24.65,36.52,0.96,-26.31,-21.51,-48,41,-945,24.6,13.3,-5.4,24.6,1.7,-29.6,5.73,2.62,-28.4,29.6
2012-09-18 02:01:00,0.0,1.9262,0.0008,392.26,0.27,183.2,33.7,138.07,31.26,24.66,36.52,1.03,-26.32,-21.98,-48,41,-945,24.5,13.5,-5.2,24.5,1.7,-29.7,5.73,2.63,-28.4,29.6
2012-09-18 02:02:00,0.0,1.9274,0.0011,392.22,0.29,185.1,29.3,138.07,31.26,24.65,36.52,1.05,-26.33,-22.44,-48,41,-946,24.5,13.8,-4.9,24.6,1.7,-29.6,5.73,2.60,-28.3,29.6
2012-09-18 02:03:00,0.0,1.9254,0.0010,392.22,0.27,188.0,27.8,138.07,31.26,24.66,36.51,0.99,-26.34,-22.86,-48,41,-945,24.6,13.6,-5.1,24.6,1.7,-29.6,5.73,2.65,-28.3,29.6
2012-09-18 02:04:00,0.0,1.9242,0.0008,392.12,0.31,196.8,26.5,138.07,31.25,24.65,36.52,0.96,-26.35,-23.26,-48,41,-945,24.5,13.2,-5.5,24.6,1.7,-29.6,5.73,2.59,-28.2,29.5
2012-09-18 02:05:00,0.0,1.9245,0.0009,392.21,0.27,196.0,25.9,138.07,31.25,24.66,36.51,1.02,-26.36,-23.64,-48,41,-946,24.5,13.2,-5.5,24.5,1.7,-29.7,5.73,2.64,-28.2,29.6
2012-09-18 02:06:00,0.0,1.9255,0.0008,392.25,0.29,189.4,29.3,138.07,31.24,24.66,36.51,1.05,-26.37,-24.00,-48,41,-945,24.5,13.3,-5.4,24.5,1.7,-29.8,5.73,2.60,-28.2,29.7
2012-09-18 02:07:00,0.0,1.9259,0.0009,392.14,0.27,191.4,24.0,138.07,31.24,24.65,36.52,1.01,-26.37,-24.33,-48,41,-945,24.5,13.7,-5.0,24.5,1.7,-29.8,5.73,2.62,-28.1,29.6
2012-09-18 02:08:00,0.0,1.9252,0.0009,392.16,0.26,188.4,24.4,138.07,31.23,24.66,36.52,0.95,-26.39,-24.65,-48,41,-946,24.5,13.8,-4.9,24.5,1.7,-29.8,5.73,2.63,-28.1,29.6
2012-09-18 02:09:00,0.0,1.9268,0.0009,392.21,0.29,194.5,26.8,138.07,31.22,24.66,36.52,1.00,-26.40,-24.94,-48,41,-945,24.5,14.0,-4.7,24.5,1.7,-29.8,5.73,2.59,-28.1,29.6
2012-09-18 02:10:00,0.0,1.9259,0.0010,392.22,0.26,197.8,31.8,138.07,31.22,24.66,36.51,1.02,-26.40,-25.22,-48,41,-945,24.5,14.0,-4.7,24.5,1.7,-29.8,5.73,2.65,-28.1,29.6
2012-09-18 02:11:00,0.0,1.9258,0.0010,392.15,0.33,195.0,31.9,138.07,31.22,24.65,36.51,1.04,-26.41,-25.48,-48,41,-946,24.5,13.9,-4.8,24.5,1.7,-29.8,5.73,2.59,-28.1,29.6
2012-09-18 02:12:00,0.0,1.9263,0.0009,392.12,0.24,193.2,31.9,138.07,31.21,24.66,36.52,0.96,-26.42,-25.73,-48,41,-945,24.5,13.6,-5.1,24.5,1.7,-29.9,5.73,2.64,-28.1,29.5
2012-09-18 02:13:00,0.0,1.9268,0.0009,392.24,0.28,198.2,31.4,138.07,31.21,24.65,36.51,0.97,-26.43,-25.96,-48,41,-945,24.5,13.6,-5.1,24.5,1.7,-29.9,5.73,2.60,-28.1,29.5
2012-09-18 02:14:00,0.0,1.9265,0.0010,392.09,0.27,193.6,29.4,138.07,31.20,24.65,36.52,1.01,-26.43,-26.19,-48,41,-946,24.5,13.8,-4.9,24.5,1.7,-29.8,5.73,2.62,-28.0,29.6
2012-09-18 02:15:00,0.0,1.9258,0.0008,392.23,0.33,192.6,33.3,138.07,31.20,24.65,36.51,1.05,-26.44,-26.39,-48,41,-945,24.5,13.8,-4.9,24.5,1.7,-29.9,5.73,2.63,-28.0,29.5
2012-09-18 02:16:00,0.0,1.9256,0.0008,392.16,0.28,197.0,28.8,138.07,31.19,24.66,36.51,0.95,-26.45,-26.32,-48,41,-946,24.5,13.7,-5.0,24.5,1.7,-29.9,5.73,2.60,-28.0,29.5
2012-09-18 02:17:00,0.0,1.9266,0.0009,392.23,0.29,204.3,28.1,138.07,31.19,24.65,36.51,1.00,-26.46,-26.20,-48,41,-945,24.5,13.9,-4.9,24.5,1.7,-29.9,5.73,2.65,-28.0,29.5
2012-09-18 02:18:00,0.0,1.9251,0.0021,392.00,0.30,201.8,26.1,138.07,31.19,24.65,36.52,0.96,-26.47,-26.35,-49,41,-945,24.5,13.7,-5.1,24.4,1.7,-29.9,5.73,2.59,-28.0,29.5
2012-09-18 02:19:00,0.0,1.9232,0.0008,392.05,0.30,195.5,30.5,138.07,31.19,24.65,36.52,0.94,-26.48,-26.46,-48,41,-946,24.5,13.3,-5.4,24.4,1.7,-29.9,5.73,2.65,-28.0,29.6
2012-09-18 02:20:00,0.0,1.9233,0.0009,392.05,0.27,199.1,26.7,138.07,31.18,24.66,36.52,1.00,-26.49,-26.21,-48,41,-945,24.5,13.4,-5.4,24.4,1.7,-29.9,5.73,2.59,-28.0,29.6
2012-09-18 02:21:00,0.0,1.9237,0.0009,392.13,0.31,196.9,29.9,138.07,31.18,24.66,36.51,1.04,-26.50,-26.29,-48,41,-946,24.5,13.9,-4.9,24.4,1.7,-29.9,5.73,2.63,-28.0,29.5
2012-09-18 02:22:00,0.0,1.9228,0.0009,392.03,0.31,196.7,29.2,138.07,31.17,24.66,36.51,1.05,-26.50,-26.46,-49,41,-946,24.5,13.6,-5.2,24.4,1.7,-29.9,5.73,2.62,-28.0,29.5
2012-09-18 02:23:00,0.0,1.9226,0.0009,392.07,0.26,195.7,32.0,138.07,31.17,24.66,36.52,0.95,-26.51,-26.36,-48,41,-945,24.5,13.2,-5.5,24.4,1.7,-29.9,5.73,2.61,-28.0,29.5